This demonstration page uses our WeatherBlox Daily Observations layout. Learn more.

40.92945, -100.16068

Hourly Observations for August 22, 2016

Temp ( °F °C ) Dew Point ( °F °C ) Humidity (%) Winds ( mph kmh ) Pressure ( in mb ) Visibility ( mi km ) Precip ( " mm )
12:15 am 00:15 Clear 70 20.9 52 11.2 54 54 SSE 12 19 29.88 1012 10 16.09344 0 0
12:35 am 00:35 Clear 68 20.2 52 11.2 56 56 SSE 15 24 29.88 1012 10 16.09344 0 0
12:55 am 00:55 Clear 69 20.3 52 11.1 56 56 S 15 24 29.88 1012 10 16.09344 0 0
1:15 am 01:15 Clear 68 20 52 11.3 57 57 S 15 24 29.88 1012 10 16.09344 0 0
1:35 am 01:35 Clear 68 19.8 52 11.2 58 58 S 16 26 29.88 1012 10 16.09344 0 0
1:55 am 01:55 Clear 67 19.5 52 11.2 59 59 S 12 19 29.91 1013 10 16.09344 0 0
2:15 am 02:15 Clear 67 19.3 52 11.3 60 60 SSE 13 20 29.91 1013 10 16.09344 0 0
2:35 am 02:35 Clear 66 19 52 11.3 61 61 SSE 13 20 29.91 1013 10 16.09344 0 0
2:55 am 02:55 Clear 66 18.7 53 11.4 63 63 S 13 20 29.88 1012 10 16.09344 0 0
3:15 am 03:15 Clear 65 18.5 53 11.5 64 64 S 10 17 29.88 1012 10 16.09344 0 0
3:35 am 03:35 Clear 65 18.1 53 11.5 66 66 S 12 19 29.88 1012 10 16.09344 0 0
3:55 am 03:55 Clear 64 18 53 11.5 66 66 S 10 17 29.88 1012 10 16.09344 0 0
4:15 am 04:15 Clear 64 18 53 11.5 66 66 S 10 17 29.88 1012 10 16.09344 0 0
4:35 am 04:35 Clear 64 17.7 53 11.5 67 67 S 10 17 29.88 1012 10 16.09344 0 0
4:55 am 04:55 Clear 63 17.3 53 11.6 69 69 S 9 15 29.88 1012 10 16.09344 0 0
5:15 am 05:15 Clear 62 16.7 53 11.5 72 72 S 8 13 29.88 1012 10 16.09344 0 0
5:35 am 05:35 Clear 62 16.5 53 11.7 73 73 S 10 17 29.88 1012 10 16.09344 0 0
5:55 am 05:55 Clear 62 16.7 53 11.6 72 72 S 12 19 29.88 1012 10 16.09344 0 0
6:15 am 06:15 Clear 62 16.7 53 11.7 73 73 S 10 17 29.88 1012 10 16.09344 0 0
6:35 am 06:35 Clear 62 16.4 53 11.8 74 74 S 9 15 29.88 1012 10 16.09344 0 0
6:55 am 06:55 Clear 60 15.8 53 11.8 77 77 S 7 11 29.91 1013 10 16.09344 0 0
7:15 am 07:15 Sunny 60 15.5 54 12 80 80 SSE 5 7 29.91 1013 10 16.09344 0 0
7:35 am 07:35 Sunny 61 16.2 54 12.3 78 78 SSE 7 11 29.91 1013 10 16.09344 0 0
7:55 am 07:55 Sunny 63 17.3 55 12.6 74 74 S 10 17 29.91 1013 10 16.09344 0 0
8:15 am 08:15 Sunny 65 18.1 55 13 72 72 S 10 17 29.91 1013 10 16.09344 0 0
8:35 am 08:35 Sunny 66 19 56 13.1 69 69 S 14 22 29.88 1012 10 16.09344 0 0
8:55 am 08:55 Sunny 68 19.9 57 13.7 68 68 S 12 19 29.85 1011 10 16.09344 0 0
9:15 am 09:15 Sunny 69 20.8 57 13.9 65 65 S 16 26 29.85 1011 10 16.09344 0 0
9:35 am 09:35 Sunny 71 21.7 58 14.4 63 63 S 16 26 29.85 1011 10 16.09344 0 0
9:55 am 09:55 Sunny 73 22.6 58 14.7 61 61 S 18 30 29.85 1011 10 16.09344 0 0
10:15 am 10:15 Sunny 75 23.9 59 15.2 58 58 S 17 28 29.83 1010 10 16.09344 0 0
10:35 am 10:35 Sunny 76 24.5 60 15.3 57 57 S 17 28 29.83 1010 10 16.09344 0 0
10:55 am 10:55 Sunny 78 25.4 60 15.5 54 54 S 16 26 29.83 1010 10 16.09344 0 0
11:15 am 11:15 Sunny 79 26.2 60 15.8 53 53 S 16 26 29.83 1010 10 16.09344 0 0
11:35 am 11:35 Sunny 80 26.9 61 16.2 52 52 S 17 28 29.8 1009 10 16.09344 0 0
11:55 am 11:55 Sunny 83 28.1 62 16.4 49 49 S 18 30 29.8 1009 10 16.09344 0 0
12:15 pm 12:15 Sunny 83 28.6 61 16.3 47 47 S 18 30 29.77 1008 10 16.09344 0 0
12:35 pm 12:35 Sunny 85 29.5 61 16.2 45 45 S 20 31 29.77 1008 10 16.09344 0 0
12:55 pm 12:55 Sunny 87 30.5 60 15.8 41 41 S 23 37 29.74 1007 10 16.09344 0 0
1:15 pm 13:15 Sunny 87 30.5 60 15.6 40 40 S 22 35 29.74 1007 10 16.09344 0 0
1:35 pm 13:35 Sunny 88 30.9 60 15.3 39 39 SSW 22 35 29.74 1007 10 16.09344 0 0
1:55 pm 13:55 Sunny 87 30.7 59 15.2 39 39 S 17 28 29.74 1007 10 16.09344 0 0
2:15 pm 14:15 Sunny 89 31.9 59 14.9 36 36 S 17 28 29.71 1006 10 16.09344 0 0
2:35 pm 14:35 Sunny 90 32.2 59 14.8 35 35 S 23 37 29.71 1006 10 16.09344 0 0
2:55 pm 14:55 Sunny 89 31.9 58 14.5 35 35 S 23 37 29.71 1006 10 16.09344 0 0
3:15 pm 15:15 Sunny 90 32 57 13.8 33 33 S 22 35 29.71 1006 10 16.09344 0 0
3:35 pm 15:35 Sunny 88 31 58 14.6 37 37 S 17 28 29.71 1006 10 16.09344 0 0
3:55 pm 15:55 Sunny 87 30.5 59 15 39 39 S 16 26 29.71 1006 10 16.09344 0 0
4:15 pm 16:15 Sunny 88 31.3 59 14.8 37 37 S 26 43 29.71 1006 10 16.09344 0 0
4:35 pm 16:35 Sunny 89 31.8 59 15 36 36 S 20 31 29.71 1006 10 16.09344 0 0
4:55 pm 16:55 Sunny 89 31.6 58 14.5 35 35 S 22 35 29.71 1006 10 16.09344 0 0
5:15 pm 17:15 Sunny 88 31.3 59 14.8 37 37 S 25 41 29.71 1006 10 16.09344 0 0
5:35 pm 17:35 Sunny 86 30.2 59 15.2 40 40 S 17 28 29.71 1006 10 16.09344 0 0
5:55 pm 17:55 Sunny 84 29.1 60 15.4 43 43 S 14 22 29.74 1007 10 16.09344 0 0
6:15 pm 18:15 Sunny 83 28.5 58 14.6 43 43 S 17 28 29.74 1007 10 16.09344 0 0
6:35 pm 18:35 Sunny 82 27.7 60 15.3 47 47 SSE 14 22 29.74 1007 10 16.09344 0 0
6:55 pm 18:55 Sunny 81 27.2 60 15.8 50 50 SSE 10 17 29.74 1007 10 16.09344 0 0
7:15 pm 19:15 Sunny 80 26.8 61 16 52 52 SSE 10 17 29.74 1007 10 16.09344 0 0
7:35 pm 19:35 Sunny 80 26.4 61 15.9 53 53 SSE 9 15 29.74 1007 10 16.09344 0 0
7:55 pm 19:55 Sunny 79 26.3 60 15.5 51 51 SE 10 17 29.74 1007 10 16.09344 0 0
8:15 pm 20:15 Sunny 79 26.1 60 15.5 52 52 SE 10 17 29.74 1007 10 16.09344 0 0
8:35 pm 20:35 Clear 78 25.5 60 15.6 54 54 SSE 13 20 29.77 1008 10 16.09344 0 0
8:55 pm 20:55 Clear 78 25.4 60 15.3 54 54 SSE 12 19 29.77 1008 10 16.09344 0 0
9:15 pm 21:15 Clear 77 25 59 15.1 54 54 SSE 12 19 29.8 1009 10 16.09344 0 0
9:35 pm 21:35 Clear 77 25 59 14.8 53 53 SSE 14 22 29.8 1009 10 16.09344 0 0
9:55 pm 21:55 Clear 76 24.5 59 15 56 56 SSE 12 19 29.8 1009 10 16.09344 0 0
10:15 pm 22:15 Clear 75 24 59 15 57 57 SSE 13 20 29.8 1009 10 16.09344 0 0
10:35 pm 22:35 Clear 75 23.8 58 14.7 57 57 SSE 14 22 29.8 1009 10 16.09344 0 0
10:55 pm 22:55 Clear 75 23.8 57 13.9 54 54 SSE 15 24 29.8 1009 10 16.09344 0 0
11:15 pm 23:15 Clear 75 23.7 56 13.2 52 52 SSE 16 26 29.8 1009 10 16.09344 0 0
11:35 pm 23:35 Clear 74 23.5 55 13 52 52 SSE 17 28 29.8 1009 10 16.09344 0 0
11:55 pm 23:55 Clear 74 23.3 55 12.6 51 51 SSE 17 28 29.8 1009 10 16.09344 0 0

Powered by AerisWeather